OSTRACH Weather Reports


time (UTC)temp
C
wind
direction
speed
KPH
gust
KPH
rain 1hr
cm
rain 24hr
cm
rain mn
cm
humidity
%
barometer
mb
20260507183210 13 280 9.7 0.0 0.00 0.00 0.13 70 1012.9
20260507180210 14 276 6.4 0.0 0.00 0.00 0.13 64 1012.5
20260507173210 15 275 0.0 0.0 0.00 0.00 0.13 62 1012.3
20260507170210 15 277 0.0 0.0 0.00 0.00 0.13 61 1012.3
20260507163209 15 273 0.0 0.0 0.00 0.00 0.13 59 1012.3
20260507160211 15 273 4.8 0.0 0.00 0.00 0.13 64 1012.3
20260507153210 15 273 6.4 0.0 0.00 0.00 0.13 63 1012.4
20260507150210 16 270 16.1 0.0 0.00 0.00 0.13 63 1012.4
20260507143212 14 348 3.2 0.0 0.00 0.00 0.13 69 1012.4
20260507140210 15 9 17.7 0.0 0.00 0.00 0.13 68 1012.5
20260507133210 14 311 16.1 0.0 0.00 0.00 0.13 74 1012.8
20260507130210 14 240 12.9 0.0 0.00 0.00 0.13 76 1012.7
20260507123210 12 240 3.2 0.0 0.00 0.00 0.13 79 1012.7
20260507120211 13 232 12.9 0.0 0.00 0.00 0.13 74 1012.5
20260507113210 13 217 3.2 0.0 0.00 0.00 0.13 72 1012.5
20260507110210 12 216 12.9 0.0 0.00 0.00 0.13 77 1012.5
20260507103216 12 211 9.7 0.0 0.00 0.00 0.13 76 1012.5
20260507100212 12 207 8.0 0.0 0.00 0.00 0.13 77 1012.4
20260507093211 12 206 9.7 0.0 0.00 0.00 0.13 78 1012.3
20260507090211 11 209 8.0 0.0 0.00 0.00 0.13 79 1012.2
20260507083212 11 209 16.1 0.0 0.00 0.00 0.13 84 1012.0
20260507080211 10 207 14.5 0.0 0.00 0.00 0.13 86 1012.0
20260507073212 9 206 11.3 0.0 0.00 0.00 0.13 89 1011.7
20260507070212 9 207 14.5 0.0 0.00 0.00 0.13 90 1011.4
20260507063211 8 200 16.1 0.0 0.00 0.00 0.10 90 1011.3
20260507060211 8 213 9.7 0.0 0.00 0.00 0.08 91 1011.0
20260507053211 8 211 1.6 0.0 0.00 0.00 0.05 90 1010.7
20260507050213 8 210 12.9 0.0 0.00 0.00 0.03 89 1010.4
20260507043211 8 219 12.9 0.0 0.00 0.00 0.03 90 1010.1
20260507040216 8 207 12.9 0.0 0.00 0.00 0.03 89 1009.8
20260507033211 8 200 11.3 0.0 0.00 0.00 0.00 89 1009.7
20260507030211 8 202 14.5 0.0 0.00 0.00 0.00 88 1009.5
20260507023211 8 204 11.3 0.0 0.00 0.00 0.00 89 1009.4
20260507020211 7 205 12.9 0.0 0.00 0.00 0.00 89 1009.3
20260507013212 7 215 12.9 0.0 0.00 0.00 0.00 90 1009.2
20260507010211 7 215 8.0 0.0 0.00 0.00 0.00 90 1009.2
20260507003209 7 215 8.0 0.0 0.00 0.00 0.00 89 1008.9
20260507000209 7 215 9.7 0.0 0.00 0.00 0.00 90 1008.8
20260506233209 7 215 8.0 0.0 0.00 0.00 0.00 89 1008.8
20260506230209 7 215 6.4 0.0 0.00 0.00 0.00 89 1008.7
20260506223209 8 215 6.4 0.0 0.00 0.00 0.00 89 1008.6
20260506220209 8 215 3.2 0.0 0.00 0.00 0.71 89 1008.3
20260506213209 8 215 4.8 0.0 0.00 0.00 0.71 89 1008.3
20260506210210 8 216 9.7 0.0 0.00 0.00 0.71 88 1008.3
20260506203210 8 218 9.7 0.0 0.00 0.00 0.71 87 1008.1
20260506200210 9 209 11.3 0.0 0.00 0.00 0.71 87 1007.9
20260506193215 8 207 16.1 0.0 0.00 0.00 0.71 88 1007.6
20260506190211 8 216 16.1 0.0 0.00 0.00 0.71 87 1007.1